EIN455 EIDW-EGBB

Flight info

Callsign EIN455
Flight time 0h 28m
Altitude 23000
Route DEXEN4E DEXEN Y124 DOLOP
Aircraft A333/H-SDE3GHIJ2J3J5M1RVWXY/LB2D1

Departure

Time 2026-05-06 23:26
Airport Dublin Airport (EIDW)

Arrival

Time 2026-05-06 23:55
Airport Birmingham Airport (EGBB)
Time Latitude Longitude Altitude Speed Heading
2026-05-06 23:09 53.42383 -6.24482 160 ft 0 kts 135°
2026-05-06 23:14 53.42384 -6.24483 221 ft 1 kts 135°
2026-05-06 23:14 53.42403 -6.24507 221 ft 4 kts 154°
2026-05-06 23:14 53.42424 -6.24527 221 ft 4 kts 149°
2026-05-06 23:14 53.42446 -6.24539 220 ft 4 kts 206°
2026-05-06 23:15 53.42461 -6.24509 226 ft 4 kts 244°
2026-05-06 23:15 53.42466 -6.24492 215 ft 1 kts 242°
2026-05-06 23:15 53.42466 -6.24491 215 ft 0 kts 242°
2026-05-06 23:18 53.42437 -6.24586 223 ft 18 kts 243°
2026-05-06 23:18 53.42362 -6.24768 224 ft 19 kts 226°
2026-05-06 23:18 53.42269 -6.24928 224 ft 12 kts 226°
2026-05-06 23:19 53.42258 -6.24947 224 ft 1 kts 226°
2026-05-06 23:19 53.42221 -6.25042 225 ft 19 kts 249°
2026-05-06 23:19 53.42215 -6.25335 219 ft 27 kts 275°
2026-05-06 23:19 53.42232 -6.25646 224 ft 27 kts 275°
2026-05-06 23:20 53.42249 -6.25957 222 ft 27 kts 275°
2026-05-06 23:20 53.42267 -6.26266 220 ft 27 kts 275°
2026-05-06 23:20 53.42284 -6.26574 221 ft 27 kts 274°
2026-05-06 23:20 53.42299 -6.26883 216 ft 27 kts 275°
2026-05-06 23:21 53.42315 -6.27190 220 ft 27 kts 275°
2026-05-06 23:21 53.42332 -6.27499 214 ft 27 kts 275°
2026-05-06 23:21 53.42350 -6.27808 223 ft 27 kts 275°
2026-05-06 23:21 53.42367 -6.28118 219 ft 27 kts 275°
2026-05-06 23:22 53.42385 -6.28428 215 ft 27 kts 275°
2026-05-06 23:22 53.42400 -6.28739 215 ft 27 kts 275°
2026-05-06 23:22 53.42400 -6.28998 216 ft 13 kts 245°
2026-05-06 23:22 53.42364 -6.29061 221 ft 1 kts 208°
2026-05-06 23:23 53.42362 -6.29062 221 ft 0 kts 206°
2026-05-06 23:24 53.42300 -6.29067 216 ft 13 kts 176°
2026-05-06 23:25 53.42240 -6.28973 224 ft 13 kts 96°
2026-05-06 23:25 53.42235 -6.28882 221 ft 27 kts 95°
2026-05-06 23:25 53.42198 -6.28190 222 ft 90 kts 95°
2026-05-06 23:25 53.42124 -6.26830 226 ft 142 kts 95°
2026-05-06 23:26 53.42009 -6.25006 486 ft 163 kts 95°
2026-05-06 23:26 53.41886 -6.23090 1112 ft 164 kts 93°
2026-05-06 23:26 53.41813 -6.21210 1864 ft 159 kts 91°
2026-05-06 23:26 53.41774 -6.19371 2397 ft 167 kts 93°
2026-05-06 23:27 53.41652 -6.17300 2694 ft 190 kts 94°
2026-05-06 23:27 53.41506 -6.14982 3027 ft 210 kts 95°
2026-05-06 23:27 53.41353 -6.12419 3321 ft 232 kts 95°
2026-05-06 23:27 53.41189 -6.09600 3624 ft 252 kts 95°
2026-05-06 23:28 53.41019 -6.06634 4379 ft 259 kts 96°
2026-05-06 23:28 53.40687 -6.03655 5309 ft 261 kts 109°
2026-05-06 23:28 53.39832 -6.00985 6266 ft 262 kts 126°
2026-05-06 23:28 53.38672 -5.98590 7140 ft 267 kts 131°
2026-05-06 23:29 53.37440 -5.96228 7857 ft 278 kts 131°
2026-05-06 23:29 53.36145 -5.93758 8651 ft 285 kts 131°
2026-05-06 23:29 53.34826 -5.91231 9531 ft 291 kts 131°
2026-05-06 23:29 53.33482 -5.88643 10284 ft 300 kts 131°
2026-05-06 23:30 53.32186 -5.85758 10644 ft 322 kts 117°
2026-05-06 23:30 53.31477 -5.82098 11014 ft 340 kts 101°
2026-05-06 23:30 53.31043 -5.78147 11649 ft 349 kts 99°
2026-05-06 23:30 53.30640 -5.74161 12363 ft 355 kts 99°
2026-05-06 23:31 53.30219 -5.70063 13122 ft 360 kts 99°
2026-05-06 23:31 53.29780 -5.65908 13852 ft 365 kts 99°
2026-05-06 23:31 53.29328 -5.61702 14518 ft 369 kts 100°
2026-05-06 23:31 53.28867 -5.57459 15201 ft 372 kts 100°
2026-05-06 23:32 53.28400 -5.53203 15873 ft 376 kts 100°
2026-05-06 23:32 53.28011 -5.48848 16522 ft 380 kts 96°
2026-05-06 23:32 53.27776 -5.44378 16835 ft 393 kts 93°
2026-05-06 23:32 53.27632 -5.39727 17136 ft 405 kts 92°
2026-05-06 23:33 53.27527 -5.34981 17651 ft 411 kts 91°
2026-05-06 23:33 53.27428 -5.30187 18223 ft 415 kts 91°
2026-05-06 23:33 53.27319 -5.25394 18730 ft 419 kts 92°
2026-05-06 23:33 53.27194 -5.20506 19211 ft 423 kts 92°
2026-05-06 23:34 53.27054 -5.15585 19691 ft 427 kts 92°
2026-05-06 23:34 53.26897 -5.10608 20159 ft 431 kts 92°
2026-05-06 23:34 53.26730 -5.05578 20605 ft 435 kts 92°
2026-05-06 23:34 53.26559 -5.00547 21233 ft 433 kts 93°
2026-05-06 23:35 53.26387 -4.95582 22156 ft 425 kts 93°
2026-05-06 23:35 53.26217 -4.90663 22801 ft 425 kts 93°
2026-05-06 23:35 53.26044 -4.85691 23032 ft 435 kts 93°
2026-05-06 23:35 53.25865 -4.80566 23046 ft 449 kts 93°
2026-05-06 23:36 53.25678 -4.75282 23042 ft 462 kts 93°
2026-05-06 23:36 53.25491 -4.69879 23036 ft 469 kts 93°
2026-05-06 23:36 53.25306 -4.64432 23048 ft 470 kts 93°
2026-05-06 23:36 53.25124 -4.59033 23046 ft 470 kts 93°
2026-05-06 23:37 53.24938 -4.53578 23048 ft 469 kts 93°
2026-05-06 23:37 53.24750 -4.48137 23047 ft 468 kts 93°
2026-05-06 23:37 53.24559 -4.42695 23049 ft 468 kts 93°
2026-05-06 23:37 53.24368 -4.37327 23048 ft 468 kts 93°
2026-05-06 23:38 53.24172 -4.31908 23046 ft 468 kts 93°
2026-05-06 23:38 53.23973 -4.26474 23046 ft 468 kts 93°
2026-05-06 23:38 53.23772 -4.21048 23044 ft 468 kts 93°
2026-05-06 23:38 53.23568 -4.15619 23045 ft 468 kts 93°
2026-05-06 23:39 53.23361 -4.10183 23044 ft 468 kts 93°
2026-05-06 23:39 53.23152 -4.04759 23046 ft 468 kts 93°
2026-05-06 23:39 53.22941 -3.99341 23047 ft 468 kts 93°
2026-05-06 23:39 53.22721 -3.93901 23045 ft 468 kts 94°
2026-05-06 23:40 53.22496 -3.88479 23049 ft 468 kts 94°
2026-05-06 23:40 53.22270 -3.83045 23051 ft 468 kts 94°
2026-05-06 23:40 53.22042 -3.77637 23051 ft 468 kts 94°
2026-05-06 23:40 53.21814 -3.72268 23049 ft 468 kts 94°
2026-05-06 23:41 53.21583 -3.66858 23055 ft 468 kts 94°
2026-05-06 23:41 53.21349 -3.61438 23054 ft 468 kts 94°
2026-05-06 23:41 53.21112 -3.56018 23055 ft 468 kts 94°
2026-05-06 23:41 53.20873 -3.50605 23055 ft 468 kts 94°
2026-05-06 23:42 53.20631 -3.45195 23060 ft 467 kts 94°
2026-05-06 23:42 53.20385 -3.39786 23081 ft 467 kts 94°
2026-05-06 23:42 53.20140 -3.34423 22853 ft 460 kts 94°
2026-05-06 23:42 53.19895 -3.29119 22574 ft 458 kts 94°
2026-05-06 23:43 53.19626 -3.23894 22325 ft 457 kts 97°
2026-05-06 23:43 53.18916 -3.18754 22053 ft 454 kts 111°
2026-05-06 23:43 53.17511 -3.14064 21783 ft 451 kts 121°
2026-05-06 23:43 53.15848 -3.09598 21519 ft 449 kts 123°
2026-05-06 23:44 53.14185 -3.05275 21268 ft 447 kts 123°
2026-05-06 23:44 53.12511 -3.00923 20999 ft 445 kts 123°
2026-05-06 23:44 53.10839 -2.96564 20730 ft 446 kts 123°
2026-05-06 23:44 53.09164 -2.92194 20485 ft 448 kts 123°
2026-05-06 23:45 53.07466 -2.87855 20238 ft 446 kts 126°
2026-05-06 23:45 53.05657 -2.83681 19840 ft 443 kts 127°
2026-05-06 23:45 53.03834 -2.79597 19298 ft 436 kts 127°
2026-05-06 23:45 53.02021 -2.75552 19053 ft 436 kts 127°
2026-05-06 23:46 53.00211 -2.71512 18699 ft 434 kts 127°
2026-05-06 23:46 52.98410 -2.67490 18217 ft 431 kts 127°
2026-05-06 23:46 52.96625 -2.63506 17684 ft 427 kts 127°
2026-05-06 23:46 52.94877 -2.59611 17309 ft 426 kts 127°
2026-05-06 23:47 52.93114 -2.55685 16888 ft 423 kts 127°
2026-05-06 23:47 52.91358 -2.51781 16411 ft 420 kts 127°
2026-05-06 23:47 52.89611 -2.47901 16000 ft 418 kts 127°
2026-05-06 23:47 52.87878 -2.44059 15574 ft 416 kts 127°
2026-05-06 23:48 52.86148 -2.40228 15145 ft 412 kts 127°
2026-05-06 23:48 52.84433 -2.36436 14729 ft 410 kts 127°
2026-05-06 23:48 52.82724 -2.32664 14287 ft 408 kts 127°
2026-05-06 23:48 52.80953 -2.28993 13716 ft 407 kts 130°
2026-05-06 23:49 52.79144 -2.25507 13034 ft 402 kts 131°
2026-05-06 23:49 52.77323 -2.22047 12374 ft 396 kts 131°
2026-05-06 23:49 52.75519 -2.18622 11652 ft 393 kts 131°
2026-05-06 23:49 52.73727 -2.15220 10889 ft 391 kts 130°
2026-05-06 23:50 52.71946 -2.11838 10179 ft 389 kts 130°
2026-05-06 23:50 52.68453 -2.05214 8579 ft 367 kts 130°
2026-05-06 23:50 52.66824 -2.02130 7797 ft 348 kts 130°
2026-05-06 23:51 52.65272 -1.99195 7057 ft 333 kts 129°
2026-05-06 23:51 52.63778 -1.96373 6299 ft 321 kts 129°
2026-05-06 23:51 52.62290 -1.93718 5512 ft 312 kts 136°
2026-05-06 23:51 52.60575 -1.91607 4731 ft 305 kts 146°
2026-05-06 23:52 52.58799 -1.89768 3951 ft 298 kts 144°
2026-05-06 23:52 52.57129 -1.87914 3311 ft 287 kts 143°
2026-05-06 23:52 52.55542 -1.86125 3020 ft 266 kts 142°
2026-05-06 23:52 52.54063 -1.84453 2675 ft 251 kts 142°
2026-05-06 23:53 52.52663 -1.82883 2290 ft 234 kts 143°
2026-05-06 23:53 52.51381 -1.81466 1973 ft 212 kts 143°
2026-05-06 23:53 52.50149 -1.80118 1299 ft 216 kts 144°
2026-05-06 23:53 52.48942 -1.78824 953 ft 200 kts 143°
2026-05-06 23:54 52.47848 -1.77581 691 ft 182 kts 141°
2026-05-06 23:54 52.46854 -1.76452 426 ft 166 kts 143°
2026-05-06 23:54 52.45954 -1.75452 354 ft 144 kts 143°
2026-05-06 23:54 52.45206 -1.74585 328 ft 110 kts 145°
2026-05-06 23:55 52.44761 -1.74106 330 ft 49 kts 146°
2026-05-06 23:55 52.44670 -1.73999 337 ft 1 kts 134°
2026-05-06 23:55 52.44660 -1.73961 332 ft 5 kts 97°
2026-05-06 23:55 52.44676 -1.73889 334 ft 12 kts 64°
2026-05-06 23:56 52.44743 -1.73742 334 ft 14 kts 39°
2026-05-06 23:56 52.44825 -1.73692 334 ft 13 kts 16°
2026-05-06 23:56 52.44914 -1.73648 333 ft 14 kts 10°
2026-05-06 23:56 52.44973 -1.73655 333 ft 8 kts
2026-05-06 23:57 52.45000 -1.73621 332 ft 4 kts 71°
2026-05-06 23:57 52.45006 -1.73586 331 ft 0 kts 73°
2026-05-06 23:57 52.45010 -1.73569 332 ft 0 kts 70°
2026-05-06 23:57 52.45021 -1.73548 332 ft 12 kts 56°
2026-05-06 23:58 52.45027 -1.73534 333 ft 0 kts 54°